New York Downtown Manhattan/w, NY

7:19 PM EDT on July 23, 2019 (GMT -0400)
New York Downtown Manhattan/w

Weather History for KJRB - May, 2019

Change the Weather History Date:

Tuesday, May 28, 2019

  Actual Average (KEWR) Record (KEWR)
Temperature  
Mean Temperature 66 °F -  
Max Temperature 72 °F 77 °F 96 °F (2016)
Min Temperature 62 °F 56 °F 42 °F (1961)
Cooling Degree Days 2    
Growing Degree Days 16 (Base 50)    
Moisture  
Dew Point 60 °F    
Average Humidity 79    
Maximum Humidity 94    
Minimum Humidity 52    
Precipitation  
Precipitation 0.39 in - - ()
Sea Level Pressure  
Sea Level Pressure 29.79 in    
Wind  
Wind Speed 6 mph ()    
Max Wind Speed 13 mph    
Max Gust Speed 51 mph    
Visibility 9.7 miles    
Events Rain , Thunderstorm    
Averages and records for this station are not official NWS values.
T = Trace of Precipitation, MM = Missing Value Source: Averaged Metar Reports

Daily Weather History Graph

Daily Weather History Graph

Search for Another Location

Airport or City:

Astronomy

May. 28, 2019 Rise Set
Actual Time 5:29 AM EDT 8:17 PM EDT
Civil Twilight 4:57 AM EDT 8:50 PM EDT
Nautical Twilight 4:16 AM EDT 9:30 PM EDT
Astronomical Twilight 3:29 AM EDT 10:17 PM EDT
Moon 2:42 AM EDT (5/28) 2:22 PM EDT (5/28)
Length of Visible Light 15h 53m
Length of Day
14h 48m
Waning Crescent, 32% of the Moon is Illuminated
May 28
Waning Crescent
Jun 3
New
Jun 10
First Quarter
Jun 17
Full
Jun 25
Last Quarter

Hourly Weather History & Observations

Time (EDT) Temp. Dew Point Humidity Pressure Visibility Wind Dir Wind Speed Gust Speed Precip Events Conditions
12:56 AM 69.1 °F 55.0 °F 61% 29.91 in 10.0 mi West 8.1 mph - N/A   Clear
1:56 AM 68.0 °F 55.0 °F 63% 29.91 in 10.0 mi Calm Calm - N/A   Clear
2:56 AM 66.0 °F 57.0 °F 73% 29.90 in 10.0 mi Calm Calm - N/A   Clear
3:56 AM 68.0 °F 54.0 °F 61% 29.90 in 10.0 mi NE 4.6 mph - N/A   Clear
4:56 AM 68.0 °F 50.0 °F 52% 29.90 in 10.0 mi NE 10.4 mph - N/A   Clear
5:56 AM 66.0 °F 53.1 °F 63% 29.92 in 10.0 mi NE 10.4 mph - N/A   Clear
6:56 AM 64.9 °F 54.0 °F 68% 29.93 in 10.0 mi NE 11.5 mph - N/A   Clear
7:56 AM 64.9 °F 54.0 °F 68% 29.91 in 10.0 mi NE 11.5 mph - N/A   Clear
8:56 AM 66.0 °F 55.0 °F 68% 29.89 in 10.0 mi NE 8.1 mph - N/A   Clear
9:56 AM 66.9 °F 55.9 °F 68% 29.89 in 10.0 mi East 8.1 mph - N/A   Overcast
10:56 AM 64.9 °F 57.9 °F 78% 29.91 in 6.0 mi SE 9.2 mph - 0.00 in Rain Light Rain
11:56 AM 63.0 °F 60.1 °F 90% 29.87 in 10.0 mi SE 9.2 mph - 0.05 in   Overcast
12:12 PM 62.6 °F 60.8 °F 94% 29.86 in 10.0 mi SSE 5.8 mph - N/A   Overcast
12:27 PM 64.4 °F 60.8 °F 88% 29.84 in 10.0 mi Variable 6.9 mph - N/A   Overcast
12:45 PM 64.4 °F 60.8 °F 88% 29.82 in 10.0 mi Variable 5.8 mph - N/A   Overcast
12:56 PM 64.0 °F 61.0 °F 90% 29.81 in 10.0 mi ESE 9.2 mph - N/A   Overcast
1:36 PM 64.4 °F 60.8 °F 88% 29.80 in 10.0 mi South 8.1 mph 19.6 mph N/A   Overcast
1:56 PM 64.9 °F 60.1 °F 84% 29.80 in 10.0 mi South 12.7 mph 16.1 mph N/A   Overcast
2:03 PM 64.4 °F 60.8 °F 88% 29.79 in 10.0 mi South 9.2 mph - N/A   Overcast
2:30 PM 64.4 °F 60.8 °F 88% 29.78 in 10.0 mi South 8.1 mph - 0.00 in Rain Light Rain
2:56 PM 66.0 °F 61.0 °F 84% 29.77 in 9.0 mi South 6.9 mph 50.6 mph 0.01 in   Overcast
3:56 PM 66.9 °F 61.0 °F 81% 29.75 in 9.0 mi Calm Calm - N/A   Overcast
4:56 PM 70.0 °F 62.1 °F 76% 29.70 in 10.0 mi Calm Calm - N/A   Mostly Cloudy
5:15 PM 71.6 °F 62.6 °F 73% 29.70 in 10.0 mi Calm Calm - N/A   Mostly Cloudy
5:45 PM 71.6 °F 62.6 °F 73% 29.69 in 9.0 mi Calm Calm - N/A   Scattered Clouds
5:56 PM 71.1 °F 63.0 °F 75% 29.69 in 10.0 mi Calm Calm - N/A   Partly Cloudy
6:23 PM 71.6 °F 62.6 °F 73% 29.69 in 10.0 mi Calm Calm - N/A   Mostly Cloudy
6:41 PM 71.6 °F 62.6 °F 73% 29.67 in 10.0 mi NE 5.8 mph - N/A   Scattered Clouds
6:56 PM 70.0 °F 63.0 °F 78% 29.67 in 10.0 mi NE 5.8 mph - N/A   Clear
7:56 PM 70.0 °F 64.0 °F 81% 29.68 in 10.0 mi West 4.6 mph - N/A   Clear
8:35 PM 71.6 °F 66.2 °F 83% 29.68 in 10.0 mi SSW 3.5 mph - 0.00 in Rain , Thunderstorm Light Rain
8:56 PM 68.0 °F 64.0 °F 87% 29.69 in 10.0 mi ENE 3.5 mph - 0.00 in Thunderstorm Mostly Cloudy
9:56 PM 70.0 °F 68.0 °F 93% 29.68 in 8.0 mi West 9.2 mph - 0.23 in Rain , Thunderstorm Thunderstorms and Rain
10:20 PM 69.8 °F 68.0 °F 94% 29.70 in 10.0 mi West 9.2 mph - 0.09 in Rain Light Rain
10:56 PM 69.1 °F 66.0 °F 90% 29.69 in 10.0 mi WSW 6.9 mph - 0.10 in   Mostly Cloudy
11:56 PM 68.0 °F 66.0 °F 93% 29.69 in 10.0 mi Calm Calm - N/A   Overcast